STARLINK-36096, 66949

Orbit data source: Space-Track

STARLINK-36096, 66949 is a payload satellite owned by SpaceX/Seattle (US) in LEO that was launched on Sun, 07 Dec 2025 UTC via an FALCON 9 launch vehicle from the Air Force Western Test Range (AFWTR). Payload-class satellites include a variety of spacecraft equipped with specific instruments for various scientific and technological missions. These include communications satellites like Starlink; space stations such as the ISS; scientific satellites like the Hubble; Earth observation satellites from companies like Planet Labs, Umbra, and HawkEye 360; GPS; miniature CubeSats for education and research; and military/defense satellites.

Loading next visibility...
Identifier
66949, 2025-286AA
Orbit
LEO
Country
Flag of USUS
Related business
Manufacturer
SpaceX/Seattle
Mission
Operational Commercial Communications
Bus & Motor
STARLINK V2MO, Unknown motor
Mass
575 kg wet, ~530 kg dry
Launch date (UTC)
2025-12-07 (6 months ago)
Launch vehicle
FALCON 9
Launch site
Air Force Western Test Range (AFWTR)
Object type
Payload
Rocket body
Debris
Shape & HBR
Box + 2 Pan, 17.7 m
Radar Cross Section
36.964 m², Large (>1 m²)

Expand to show TLE details & history
Last TLE update: 9 hours ago

TLE from 9 hours ago
0 STARLINK-36096
1 66949U 25286AA  26171.47381059  .00015732  00000-0  47571-3 0  9996
2 66949  53.1577 239.5986 0001024  82.6901 277.4218 15.34402696 31172
Epoch: 2026-06-20T11:22Z
TLE epoch observation values (Epoch: 2026-06-20T11:22:17.234Z)
Latitude
-0.00004°
Longitude
160.33884°
Altitude
463.506 km
Speed
7.636 km/s
True Right ascension
15h 58m 23s
True Declination
0° 00' 00"
Sunlit
Object was in full shadow at epoch
Visualization orbit readout
Latitude
Unknown
Longitude
Unknown
Altitude
Unknown
Speed
Unknown
Apparent Right ascension
Unknown
Apparent Declination
Unknown
Sunlit
N/A
Visualization observer readout
Local Sidereal Time
07:13:53
Azimuth
Unknown
Elevation
Unknown
Doppler factor
Unknown
Orbital elements
Apogee altitude
463.653 km
Perigee altitude
462.252 km
Semi-major axis
6,841.089 km
Eccentricity
0.0001
Inclination
53.1577°
RAAN
239.5986°
Arg. of periapsis
82.6901°
True anomaly
277.41016°
Mean anomaly
277.4218°
Eccentric anomaly
277.41598°
Mean motion
3.83579 °/min
Orbital period
93.85 mins
BSTAR
0.00047571
Loading maneuver chart data...
Computing Atmospheric mass density...
Loading historical data...
Loading historical data...
Loading historical data...
Loading historical data...
Loading historical data...
Loading historical data...
Loading historical data...

Documentation

Showing up to 5 results
|